Location: Eaton
(41.3139°N, 82.0207°W)
Time: 02:06:12
(UTC+00:00)

Okean 2 Rocket - Pass Details

Date: 17 June 2021
Orbit: 617 x 641 km, 82.5° (Epoch: 02 August)

Event Time Altitude Azimuth Distance (km) Brightness Sun altitude
Rises 01:44:56 0° 347° (NNW) 2,940 7.5 -7.1°
Reaches altitude 10° 01:47:12 10° 344° (NNW) 2,031 6.7 -7.4°
Maximum altitude 01:51:37 57° 266° (W) 753 3.8 -8.0°
Drops below altitude 10° 01:56:01 10° 188° (S) 2,024 5.4 -8.7°
Sets 01:58:17 0° 184° (S) 2,930 6.2 -9.0°
